Regional Weather Roundup
Issued by NWS

Home | Current Version | Previous Version | Graphics & Text | Print | Product List | Glossary On
Versions: 1 2 3 4 5 6 7 8 9 10 11 12 13 14 15 16 17 18 19 20 21 22 23 24 25 26 27 28 29 30 31 32 33 34 35 36 37 38 39 40 41 42 43 44 45 46 47 48 49 50
000
ASUS43 KDMX 200901
RWRIA

WEATHER ROUNDUP FOR IOWA
NATIONAL WEATHER SERVICE DES MOINES IA
400 AM CDT WED SEP 20 2017

NOTE: "FAIR" INDICATES FEW OR NO CLOUDS BELOW 12,000 FEET WITH NO
SIGNIFICANT WEATHER AND/OR OBSTRUCTIONS TO VISIBILITY.

* - THESE STATIONS ARE NOT NWS STATIONS...THUS NOT UNDER NWS
QUALITY CONTROL.  THEY ALSO DO NOT REPORT WEATHER SUCH
AS PRECIPITATION OR FOG.

IAZ001>003-012>014-020>022-031>034-043>046-201000-
   NORTHWEST IOWA

CITY           SKY/WX    TMP DP  RH WIND       PRES   REMARKS
CARROLL *      PTCLDY    75  70  83 S15       29.64R
CHEROKEE *     CLOUDY    62  60  95 CALM      29.68S
DENISON *      MOCLDY    73  66  78 NW12G20   29.68R
LE MARS *      CLOUDY    61  59  94 CALM      29.67F
ORANGE CITY *  MOCLDY    63  61  94 S5        29.67F
SHELDON *      CLOUDY    61  59  94 CALM      29.65S
SIOUX CITY     MOCLDY    63  58  83 N3        29.68F
SPENCER        CLOUDY    61  59  93 CALM      29.67S
STORM LAKE *   CLOUDY    64  57  77 N10       29.68F
$$

IAZ055>058-069>071-079>083-090>094-201000-
   SOUTHWEST IOWA

CITY           SKY/WX    TMP DP  RH WIND       PRES   REMARKS
ATLANTIC *     CLEAR     73  70  88 SW8       29.68R
AUDUBON *      CLEAR     73  70  88 S9        29.68R
CLARINDA *     CLOUDY    75  70  83 S12G17    29.67S
COUNCIL BLFS * PTCLDY    75  73  94 S8        29.65S
CRESTON *      CLOUDY    73 -36   1 S13       29.70R
HARLAN  *      CLEAR     73  72  94 S9        29.69S
LAMONI         CLOUDY    72  68  87 S8        29.71S
RED OAK *      PTCLDY    75  70  83 S10       29.66R
SHENANDOAH *   CLOUDY    75  70  83 W8G14     29.67R
$$

IAZ047>049-059>061-072>074-084-201000-
   CENTRAL IOWA

CITY           SKY/WX    TMP DP  RH WIND       PRES   REMARKS
AMES           CLOUDY    71  68  90 SE9       29.67F
ANKENY *       PTCLDY    73  68  83 S7        29.68F
BOONE *        CLOUDY    73  68  83 S8        29.67S
CHARITON *     PTCLDY    73  68  83 S13       29.71F
DES MOINES     PTCLDY    76  68  76 S13       29.67F
GRINNELL*      CLOUDY    70  65  84 SE7       29.75S
KNOXVILLE *    CLOUDY    72  66  83 S9        29.70F
MARSHALLTOWN   PTCLDY    70  66  87 SE13      29.70F
NEWTON *       PTCLDY    72  66  83 S8        29.72S
PELLA *        CLOUDY    72  65  78 S7        29.73S
PERRY *          N/A     75  70  85 S10G17    29.66S
$$

IAZ004>006-015-016-023>025-035-036-201000-
   NORTH CENTRAL IOWA

CITY           SKY/WX    TMP DP  RH WIND       PRES   REMARKS
ALGONA *       MOCLDY    73  70  88 S7        29.65F
CLARION *      CLEAR     72  70  94 S16G23    29.65S
ESTHERVILLE    CLOUDY    63  63 100 W3        29.65S
FORT DODGE *   MOCLDY    74  68  81 S13       29.65R
MASON CITY     CLEAR     70  65  84 S17G25    29.67F
FOREST CITY *  MOCLDY    72  66  83 S10       29.67R
IOWA FALLS *     N/A     72  66  83 SE14G20   29.69F
$$

IAZ007>011-017>019-026>030-037>042-050>054-066-201000-
   NORTHEAST IOWA

CITY           SKY/WX    TMP DP  RH WIND       PRES   REMARKS
CEDAR RAPIDS   PTCLDY    69  65  86 SE9       29.77F
CHARLES CITY * CLOUDY    70  66  88 SE10G21   29.70F
CLINTON *      PTCLDY    67  64  90 SE10      29.85S
DECORAH *      CLOUDY    70  64  83 SE14G26   29.73F
DUBUQUE        PTCLDY    66  63  90 SE13      29.83F
MONTICELLO *   PTCLDY    68  64  88 SE12G18   29.80F
OELWEIN *      PTCLDY    68  66  94 SE15G22   29.76F
WATERLOO       PTCLDY    69  64  84 SE15      29.71F
$$

IAZ064-065-067-068-078-201000-
   EAST CENTRAL IOWA

CITY           SKY/WX    TMP DP  RH WIND       PRES   REMARKS
DAVENPORT      PTCLDY    67  63  87 SE8       29.85S
IOWA CITY      CLEAR     69  64  84 SE6       29.80S
MUSCATINE *    CLEAR     70  64  83 SE5       29.81S
QUAD CITIES    PTCLDY    69  63  81 SE7       29.82S
$$

IAZ062-063-075>077-085>089-095>099-201000-
   SOUTHEAST IOWA

CITY           SKY/WX    TMP DP  RH WIND       PRES   REMARKS
BURLINGTON     CLEAR     72  67  84 S9        29.80S
FAIRFIELD *    CLEAR     70  64  83 S7        29.77F
FORT MADISON * CLEAR     72  66  83 S5        29.81S
KEOKUK *       PTCLDY    72  66  83 SE7       29.79S
OSKALOOSA *      N/A     70  65  85 S7        29.75F
OTTUMWA        CLEAR     73  66  78 S12       29.74F
WASHINGTON *   CLEAR     66  66 100 SE5       29.80S
$$

ABBREVIATIONS USED IN REMARKS
   TC - TEMPERATURES IN CELSIUS
  WCI - WIND CHILL INDEX
   HX - HEAT INDEX
  VSB - VISIBILITY
$$





USA.gov is the U.S. government's official web portal to all federal, state and local government web resources and services.